Location: Morrison Observatory
(41.7012°N, 86.2315°W)
Time: 03:38:36
(UTC-04:00)

Daily predictions for brighter satellites

Satellite Brightness Start Highest point End
(mag) Time Altitude Azimuth Time Altitude Azimuth Time Altitude Azimuth
USA 267 4.1 04:31:12 10° ESE 04:36:09 44° ENE 04:36:09 44° ENE
Cosmos 1943 Rocket 4.5 04:57:50 15° N 04:57:50 15° N 04:58:45 10° NNE
Okean O Rocket 3.3 05:14:53 10° NNE 05:18:42 31° E 05:18:42 31° E
Lacrosse 5 4.2 05:24:59 14° N 05:24:59 14° N 05:27:03 10° NNE
Meteor 2-5 Rocket 4.0 05:31:32 49° SSE 05:33:02 70° E 05:38:48 10° NNE
Cosmos 1125 Rocket 3.6 05:39:17 73° NE 05:39:17 73° NE 05:44:06 10° NNE
SL-8 Rocket 4.2 05:42:22 10° N 05:48:42 69° E 05:54:59 10° SSE
USA 215 3.9 05:43:22 10° NE 05:49:18 38° NNW 05:50:01 37° NW
SJ 16-02 2.1 05:52:07 45° NNE 05:52:07 45° NNE 05:55:12 10° NNE
Cosmos 158 Rocket 4.4 05:53:33 50° S 05:53:33 50° S 05:57:33 10° S
Cosmos 2227 Rocket 2.9 05:52:19 10° NNW 05:57:53 54° ENE 06:03:25 10° SE
ADEOS II 2.8 05:56:15 10° N 05:59:49 37° NNW 05:59:49 37° NNW
Milstar 3 4.1 06:01:35 21° SSW 06:02:25 21° SSW 06:07:31 10° SSE
Cosmos 1809 Rocket 4.3 05:58:16 10° NNW 06:04:20 67° W 06:10:25 10° S
MOS 1-B 4.4 05:59:51 10° N 06:05:27 52° WNW 06:05:49 51° W
Cosmos 1048 Rocket 3.9 06:06:33 60° W 06:06:54 62° WSW 06:12:05 10° S
NOSS 3-1 (C) 3.8 06:09:14 40° WNW 06:09:46 40° NW 06:15:56 10° NNE
Intercosmos 24 3.6 06:09:37 10° N 06:13:58 84° W 06:17:32 10° S
Meteor 1-24 Rocket 3.7 06:11:16 10° SSW 06:17:17 80° W 06:23:10 10° N
NOSS 3-1 (A) 3.7 06:16:39 41° W 06:18:00 48° NW 06:24:21 10° NNE
Cosmos 1656 4.5 06:12:52 10° S 06:18:23 53° ESE 06:23:54 10° NNE
USA 267 3.3 06:13:59 10° SSE 06:20:22 55° SW 06:23:31 30° WNW
IRS-1C Rocket 4.0 06:18:11 10° NNE 06:23:29 82° WNW 06:28:45 10° SSW
Cosmos 2218 Rocket 3.9 06:17:20 10° N 06:23:37 78° W 06:29:55 10° S
CZ-2C R/B 3.8 06:20:05 10° SSE 06:24:49 82° ENE 06:29:31 10° NNW
Meteor 2-21 Rocket 4.4 06:20:55 10° NNW 06:26:52 58° W 06:32:49 10° S
SJ-6F 4.5 06:24:13 10° NNE 06:28:18 76° ESE 06:32:22 10° S
ATLAS 3B R/B 4.1 06:23:18 10° NNW 06:29:15 32° NE 06:35:00 10° ESE
Cosmos 2219 4.0 06:31:24 29° WSW 06:31:24 29° WSW 06:35:33 10° SSW
OE (NEXTSAT) 4.4 06:31:18 56° WSW 06:31:40 61° SSW 06:35:12 10° SE
In-Cosmos 22 4.1 06:26:23 10° SSW 06:32:01 70° W 06:37:46 10° N
Meteor 1-31 Rocket 2.6 06:28:49 10° N 06:32:37 73° WNW 06:36:24 10° SSW
Cosmos 2297 Rocket 2.2 06:29:14 10° NNW 06:34:55 88° ENE 06:40:34 10° SSE
Cosmos 1607 4.3 06:30:44 10° NNW 06:37:13 69° NE 06:43:39 10° SE
CZ-4B R/B 4.0 06:34:38 10° N 06:39:07 68° WNW 06:43:34 10° SSW
Cosmos 1697 Rocket 3.5 06:35:44 10° S 06:41:13 55° ESE 06:46:45 10° NNE
Cosmos 1908 3.1 06:39:22 10° N 06:43:13 87° E 06:47:02 10° S
Cosmos 2181 Rocket 4.5 06:38:37 13° SW 06:43:28 35° WNW 06:49:03 10° N
MTI 3.7 06:42:05 10° SSE 06:45:20 87° W 06:48:34 10° NNW
ATLAS CENTAUR R/B 3.6 06:43:40 10° N 06:46:33 20° NE 06:49:31 10° E
Cosmos 2082 3.6 06:41:11 10° NNW 06:46:51 77° WSW 06:52:27 10° SSE
NOSS 2-3 (C) 3.8 06:42:57 11° SW 06:47:26 85° NW 06:52:54 10° NE
Meteor PRIRODA 4.1 06:43:59 10° N 06:47:31 39° WNW 06:49:44 19° SW
Cosmos 2084 Rocket 3.7 06:50:12 24° WSW 06:52:23 46° NW 06:56:20 10° NNE
Landsat 4 3.9 06:48:51 10° S 06:52:27 44° W 06:56:04 10° NNW
EO 1 Del DPAF 3.1 06:49:42 10° SSE 06:53:31 86° WSW 06:57:23 10° NNW
Okean O Rocket 2.7 06:51:30 10° NNW 06:55:04 24° WNW 06:56:09 22° W
Cosmos 1980 Rocket 3.5 06:51:34 10° S 06:56:48 42° ESE 07:02:04 10° NE
Cosmos 2221 2.5 06:53:27 10° N 06:57:52 83° W 07:02:14 10° S
CZ-2C R/B 4.0 06:53:46 10° NNE 06:58:29 40° E 07:03:17 10° SSE
Meteor 1-28 Rocket 3.4 06:57:45 10° S 07:01:26 47° W 07:05:09 10° NNW
CZ-4B R/B 3.8 06:58:01 10° N 07:02:55 34° WNW 07:07:52 10° SW
Cosmos 1300 4.0 06:59:32 10° N 07:03:12 43° ENE 07:06:51 10° SSE
Feng Yun 1-1 Rocket 4.3 06:58:05 10° NNE 07:03:46 82° WNW 07:09:34 10° SSW
COSMO-SKYMED 1 2.5 07:03:52 10° S 07:08:11 77° WSW 07:12:33 10° NNW
PAYLOAD A 4.2 07:04:06 10° NNE 07:08:51 71° ESE 07:13:43 10° S
Lacrosse 5 4.0 07:05:36 10° NNW 07:09:08 18° NNE 07:12:38 10° ENE
Cosmos 2369 3.9 07:06:30 10° SW 07:11:56 48° WNW 07:17:25 10° NNE
Cosmos 494 Rocket 4.3 07:10:37 10° NNW 07:15:30 42° WSW 07:20:23 10° S
Meteor 1-21 Rocket 4.2 07:10:30 10° SSW 07:16:14 71° W 07:21:54 10° N
Okean-O 2.7 07:13:47 10° N 07:18:08 56° WNW 07:22:27 10° SSW
Cosmos 1726 2.1 07:22:00 10° NNW 07:25:36 57° W 07:29:11 10° S
Cosmos 1674 3.7 07:24:47 10° SW 07:27:54 25° WNW 07:31:01 10° NNW
OPS 6432 4.3 07:25:01 10° SW 07:28:42 75° NW 07:31:48 10° NNE
Thor Agena Rocket 3.9 07:23:46 10° SSE 07:29:00 75° ENE 07:34:13 10° N
NOSS 2-3 (D) 4.4 07:25:43 10° WSW 07:30:12 42° NW 07:35:28 10° NNE
Cosmos 1328 4.0 07:29:05 10° S 07:33:06 77° E 07:37:08 10° N
GRACE-1 3.7 07:30:46 10° N 07:33:19 79° E 07:35:51 10° S
Cosmos 2278 4.4 07:29:26 10° WSW 07:34:31 34° WNW 07:39:39 10° N
Cosmos 1076 Rocket 3.8 07:31:38 10° SSW 07:35:48 45° WNW 07:39:58 10° N
NOAA 6 4.5 07:34:19 10° N 07:39:07 40° WNW 07:43:54 10° SW
Cosmos 2098 Rocket 4.5 07:33:47 10° NNW 07:41:14 62° W 07:48:15 10° S
Cosmos 2227 Rocket 3.4 07:37:18 10° NW 07:41:29 22° W 07:45:40 10° SSW
